Simultaneous Nadir Overpasses (SNOs) Predictions

Prediction of SNOs between METOP-B and TERRA Satellite Orbit:

Table of predicted SNOs for the next 14.0 days since TLE Epoch: 6/14/2025
Index Date (METOP-B) Time (METOP-B) Lat,Lon (METOP-B) SZA (METOP-B ) Date (TERRA) Time (TERRA) Lat,Lon (TERRA) SZA (TERRA ) Distance(km) Time Diff (sec)
1 06/15/2025 01:59:09 -78.05, -28.14 125.33 06/15/2025 01:59:29 -78.06, -28.02 125.32 3.06 20
2 06/15/2025 02:49:33 78.68, 142.70 55.35 06/15/2025 02:48:33 78.68, 142.64 55.34 1.50 60
3 06/17/2025 14:48:15 -77.83, 138.51 125.64 06/17/2025 14:49:17 -77.83, 138.53 125.64 0.70 62
4 06/17/2025 15:38:44 78.28, -51.89 54.83 06/17/2025 15:38:25 78.29, -51.76 54.84 3.03 19
5 06/20/2025 04:27:48 78.14, 115.10 54.64 06/20/2025 04:28:11 78.14, 115.07 54.64 0.73 23
6 06/20/2025 05:18:21 -78.49, -75.67 124.99 06/20/2025 05:17:23 -78.50, -75.55 124.98 2.97 58
7 06/22/2025 17:16:56 77.79, -78.94 54.29 06/22/2025 17:18:00 77.79, -78.94 54.29 0.18 64
8 06/22/2025 18:07:22 -78.43, 91.71 125.05 06/22/2025 18:07:06 -78.42, 91.58 125.06 3.07 16
9 06/25/2025 06:56:33 -78.00,-102.84 125.45 06/25/2025 06:56:57 -78.01,-102.79 125.44 1.44 24
10 06/25/2025 07:46:59 78.56, 67.49 55.14 06/25/2025 07:46:03 78.55, 67.43 55.13 1.39 56
11 06/27/2025 19:45:38 -77.81, 63.91 125.55 06/27/2025 19:46:43 -77.80, 63.82 125.56 2.27 65



Historial Predications of SNOs between METOP-B and TERRA
